This is the latest recevied weather packets stored in our database for station/object SQ9RHX-13. If no packets are shown the sender has not sent any weather packets the latest 10 day(s).
| Time | Temp. | Humidity | Pressure | Rain* | Wind** | Luminosity | Snow |
|---|---|---|---|---|---|---|---|
| 1777916702 | 22.22° C | 48% | 1014.7 hPa | 0 mm | - | 12 W/m² | - |
| 1777916403 | 22.78° C | 46% | 1014.7 hPa | 0 mm | - | 14 W/m² | - |
| 1777916104 | 23.89° C | 43% | 1014.7 hPa | 0 mm | - | 17 W/m² | - |
| 1777915804 | 23.89° C | 41% | 1014.6 hPa | 0 mm | - | 21 W/m² | - |
| 1777915503 | 24.44° C | 38% | 1014.6 hPa | 0 mm | - | 27 W/m² | - |
| 1777915202 | 24.44° C | 38% | 1014.7 hPa | 0 mm | - | 40 W/m² | - |
| 1777914902 | 24.44° C | 37% | 1014.6 hPa | 0 mm | - | 41 W/m² | - |
| 1777914603 | 25° C | 35% | 1014.8 hPa | 0 mm | - | 40 W/m² | - |
| 1777914303 | 25° C | 36% | 1014.8 hPa | 0 mm | - | 49 W/m² | - |
| 1777914005 | 25° C | 35% | 1014.8 hPa | 0 mm | - | 57 W/m² | - |
| 1777913703 | 25.56° C | 36% | 1014.7 hPa | 0 mm | - | 62 W/m² | - |
| 1777913403 | 25.56° C | 36% | 1014.7 hPa | 0 mm | - | 65 W/m² | - |
| 1777913104 | 25.56° C | 34% | 1014.8 hPa | 0 mm | - | 65 W/m² | - |
| 1777912804 | 25.56° C | 35% | 1014.9 hPa | 0 mm | - | 74 W/m² | - |
| 1777912503 | 25.56° C | 34% | 1014.9 hPa | 0 mm | - | 74 W/m² | - |
| 1777912203 | 25.56° C | 36% | 1014.9 hPa | 0 mm | - | 85 W/m² | - |
| 1777911905 | 25.56° C | 37% | 1014.9 hPa | 0 mm | - | 77 W/m² | - |
| 1777911604 | 25.56° C | 35% | 1014.8 hPa | 0 mm | - | 78 W/m² | - |
| 1777911303 | 26.11° C | 36% | 1014.9 hPa | 0 mm | - | 90 W/m² | - |
| 1777911002 | 26.67° C | 36% | 1014.9 hPa | 0 mm | - | 78 W/m² | - |
| 1777910704 | 26.67° C | 34% | 1015 hPa | 0 mm | - | 95 W/m² | - |
| 1777910407 | 27.22° C | 35% | 1015 hPa | 0 mm | - | 104 W/m² | - |
| 1777910103 | 27.78° C | 34% | 1015.1 hPa | 0 mm | - | 115 W/m² | - |
| 1777909803 | 27.78° C | 35% | 1015 hPa | 0 mm | - | 139 W/m² | - |
| 1777909502 | 27.22° C | 34% | 1015 hPa | 0 mm | - | 187 W/m² | - |
* Rain latest hour (hover to see other rain measurements)
** Current wind speed in m/s (hover to see current wind gust speed)